This demonstration page uses our WeatherBlox Daily Observations layout. Learn more.

Left ArrowRight Arrow

53.62937, 11.41316

Hourly Observations for July 28, 2016

Temp ( °F °C ) Dew Point ( °F °C ) Humidity (%) Winds ( mph kmh ) Pressure ( in mb ) Visibility ( mi km ) Precip ( " mm )
6:20 am 06:20 Cloudy 63 17 59 15 88 88 SW 9 15 29.94 1014 30 48 N/A
6:50 am 06:50 Mostly Cloudy 63 17 59 15 88 88 WSW 7 11 29.94 1014 30 48 N/A
7:20 am 07:20 Mostly Cloudy 64 18 61 16 88 88 WSW 8 13 29.97 1015 30 48 N/A
7:50 am 07:50 Mostly Cloudy 64 18 61 16 88 88 SW 6 9 29.97 1015 30 48 N/A
8:20 am 08:20 Mostly Cloudy 64 18 61 16 88 88 WSW 7 11 29.97 1015 30 48 N/A
8:50 am 08:50 Mostly Cloudy 64 18 61 16 88 88 WSW 8 13 29.97 1015 30 48 N/A
9:20 am 09:20 Mostly Cloudy 64 18 61 16 88 88 WSW 9 15 29.97 1015 30 48 N/A
9:50 am 09:50 Mostly Cloudy 64 18 59 15 83 83 WNW 5 7 29.97 1015 30 48 N/A
10:20 am 10:20 Mostly Cloudy 66 19 59 15 78 78 W 6 9 30.00 1016 30 48 N/A
10:50 am 10:50 Mostly Cloudy 66 19 57 14 73 73 NW 6 9 30.00 1016 30 48 N/A
11:20 am 11:20 Mostly Cloudy with Light Rain 66 19 57 14 73 73 W 6 9 30.00 1016 6 9 N/A
11:50 am 11:50 Mostly Cloudy 64 18 59 15 83 83 WSW 7 11 30.00 1016 30 48 N/A
12:20 pm 12:20 Mostly Cloudy 66 19 59 15 78 78 WSW 6 9 30.00 1016 30 48 N/A
12:50 pm 12:50 Mostly Cloudy 68 20 59 15 73 73 VRB 3 6 30.00 1016 30 48 N/A
1:20 pm 13:20 Mostly Cloudy 68 20 57 14 69 69 VRB 3 6 30.00 1016 30 48 N/A
1:50 pm 13:50 Partly Cloudy 68 20 57 14 69 69 VRB 3 6 30.00 1016 30 48 N/A
2:20 pm 14:20 Mostly Cloudy 70 21 57 14 64 64 SW 6 9 29.97 1015 30 48 N/A
2:50 pm 14:50 Mostly Cloudy 72 22 59 15 65 65 VRB 5 7 29.97 1015 30 48 N/A
3:20 pm 15:20 Partly Cloudy 72 22 57 14 61 61 VRB 3 6 29.97 1015 30 48 N/A
3:50 pm 15:50 Mostly Cloudy 73 23 59 15 61 61 WSW 6 9 29.97 1015 30 48 N/A
4:20 pm 16:20 Mostly Cloudy 72 22 57 14 61 61 SW 8 13 29.97 1015 30 48 N/A
4:50 pm 16:50 Partly Cloudy 73 23 57 14 57 57 SW 6 9 29.94 1014 30 48 N/A
5:20 pm 17:20 Partly Cloudy 73 23 59 15 61 61 SW 6 9 29.94 1014 30 48 N/A
5:50 pm 17:50 Partly Cloudy 73 23 57 14 57 57 VRB 2 4 29.94 1014 30 48 N/A
6:20 pm 18:20 Partly Cloudy 73 23 57 14 57 57 WSW 5 7 29.91 1013 30 48 N/A
6:50 pm 18:50 Mostly Sunny 73 23 57 14 57 57 SSW 7 11 29.91 1013 7 11 N/A

Powered by AerisWeather